Time,TemperatureF,DewpointF,PressureIn,WindDirection,WindDirectionDegrees,WindSpeedMPH,WindSpeedGustMPH,Humidity,HourlyPrecipIn,Conditions,Clouds,dailyrainin,SoftwareType,DateUTC
2013-11-19 00:01:00,25.6,20.0,30.12,SE,135,2.5,2.7,79,0.00,,,0.00,WUHU216HW,2013-11-19 06:01:00,
2013-11-19 00:06:00,25.4,19.8,30.12,SE,135,3.4,3.4,79,0.00,,,0.00,WUHU216HW,2013-11-19 06:06:00,
2013-11-19 00:11:00,25.0,19.4,30.12,SSE,158,3.4,3.6,79,0.00,,,0.00,WUHU216HW,2013-11-19 06:11:00,
2013-11-19 00:16:00,24.7,19.1,30.12,SSE,158,2.5,3.6,79,0.00,,,0.00,WUHU216HW,2013-11-19 06:16:00,
2013-11-19 00:21:00,24.7,19.4,30.12,SE,135,3.1,3.1,80,0.00,,,0.00,WUHU216HW,2013-11-19 06:21:00,
2013-11-19 00:26:00,24.5,19.3,30.12,SE,135,2.5,3.1,80,0.00,,,0.00,WUHU216HW,2013-11-19 06:26:00,
2013-11-19 00:31:00,24.7,19.1,30.12,SE,135,1.8,2.9,79,0.00,,,0.00,WUHU216HW,2013-11-19 06:31:00,
2013-11-19 00:36:00,24.8,19.6,30.12,ESE,113,1.8,2.5,80,0.00,,,0.00,WUHU216HW,2013-11-19 06:36:00,
2013-11-19 00:41:00,24.8,19.3,30.11,East,90,0.7,2.5,79,0.00,,,0.00,WUHU216HW,2013-11-19 06:41:00,
2013-11-19 00:46:00,24.7,19.1,30.11,ENE,68,1.3,1.8,79,0.00,,,0.00,WUHU216HW,2013-11-19 06:46:00,
2013-11-19 00:51:00,24.3,18.5,30.11,ENE,68,1.8,2.2,78,0.00,,,0.00,WUHU216HW,2013-11-19 06:51:00,
2013-11-19 00:58:00,24.1,18.3,30.11,ENE,68,1.3,2.2,78,0.00,,,0.00,WUHU216HW,2013-11-19 06:58:00,
2013-11-19 01:03:00,23.9,18.1,30.11,East,90,1.6,1.6,78,0.00,,,0.00,WUHU216HW,2013-11-19 07:03:00,
2013-11-19 01:08:00,24.1,18.3,30.12,East,90,1.6,1.8,78,0.00,,,0.00,WUHU216HW,2013-11-19 07:08:00,
2013-11-19 01:13:00,24.1,18.3,30.11,East,90,1.8,2.0,78,0.00,,,0.00,WUHU216HW,2013-11-19 07:13:00,
2013-11-19 01:18:00,24.1,18.5,30.11,East,90,0.7,2.0,79,0.00,,,0.00,WUHU216HW,2013-11-19 07:18:00,
2013-11-19 01:23:00,24.1,18.5,30.11,East,90,1.8,2.0,79,0.00,,,0.00,WUHU216HW,2013-11-19 07:23:00,
2013-11-19 01:28:00,24.1,18.5,30.11,East,90,1.6,2.0,79,0.00,,,0.00,WUHU216HW,2013-11-19 07:28:00,
2013-11-19 01:33:00,24.1,18.5,30.12,ESE,113,1.1,2.0,79,0.00,,,0.00,WUHU216HW,2013-11-19 07:33:00,
2013-11-19 01:38:00,24.1,18.5,30.11,ESE,113,1.8,2.5,79,0.00,,,0.00,WUHU216HW,2013-11-19 07:38:00,
2013-11-19 01:43:00,24.1,18.5,30.12,East,90,1.8,2.5,79,0.00,,,0.00,WUHU216HW,2013-11-19 07:43:00,
2013-11-19 01:48:00,24.1,18.5,30.12,East,90,2.5,2.5,79,0.00,,,0.00,WUHU216HW,2013-11-19 07:48:00,
2013-11-19 01:53:00,24.1,18.5,30.12,East,90,1.6,2.9,79,0.00,,,0.00,WUHU216HW,2013-11-19 07:53:00,
2013-11-19 01:58:00,24.1,18.9,30.12,ENE,68,1.8,2.9,80,0.00,,,0.00,WUHU216HW,2013-11-19 07:58:00,
2013-11-19 02:03:00,23.9,18.4,30.12,ENE,68,1.3,2.7,79,0.00,,,0.00,WUHU216HW,2013-11-19 08:03:00,
2013-11-19 02:08:00,23.8,17.9,30.12,NE,45,2.5,2.5,78,0.00,,,0.00,WUHU216HW,2013-11-19 08:08:00,
2013-11-19 02:13:00,23.4,17.3,30.12,NE,45,3.4,3.4,77,0.00,,,0.00,WUHU216HW,2013-11-19 08:13:00,
2013-11-19 02:18:00,23.2,17.4,30.11,NE,45,3.1,4.5,78,0.00,,,0.00,WUHU216HW,2013-11-19 08:18:00,
2013-11-19 02:23:00,23.2,17.4,30.11,ENE,68,4.3,4.5,78,0.00,,,0.00,WUHU216HW,2013-11-19 08:23:00,
2013-11-19 02:28:00,23.0,17.6,30.11,East,90,3.6,4.3,79,0.00,,,0.00,WUHU216HW,2013-11-19 08:28:00,
2013-11-19 02:33:00,23.2,18.0,30.11,ENE,68,3.6,4.3,80,0.00,,,0.00,WUHU216HW,2013-11-19 08:33:00,
2013-11-19 02:38:00,23.4,18.2,30.11,NNE,23,3.6,4.3,80,0.00,,,0.00,WUHU216HW,2013-11-19 08:38:00,
2013-11-19 02:43:00,23.4,18.2,30.11,NNE,23,2.5,4.5,80,0.00,,,0.00,WUHU216HW,2013-11-19 08:43:00,
2013-11-19 02:48:00,23.4,18.2,30.10,NE,45,3.4,4.5,80,0.00,,,0.00,WUHU216HW,2013-11-19 08:48:00,
2013-11-19 02:53:00,23.4,18.2,30.11,NE,45,4.0,4.0,80,0.00,,,0.00,WUHU216HW,2013-11-19 08:53:00,
2013-11-19 02:58:00,23.4,18.2,30.11,ENE,68,1.3,4.0,80,0.00,,,0.00,WUHU216HW,2013-11-19 08:58:00,
2013-11-19 03:03:00,23.4,18.5,30.11,ENE,68,2.2,3.6,81,0.00,,,0.00,WUHU216HW,2013-11-19 09:03:00,
2013-11-19 03:08:00,23.4,18.5,30.10,ENE,68,2.7,3.1,81,0.00,,,0.00,WUHU216HW,2013-11-19 09:08:00,
2013-11-19 03:13:00,23.6,18.6,30.11,ENE,68,1.3,2.9,81,0.00,,,0.00,WUHU216HW,2013-11-19 09:13:00,
2013-11-19 03:18:00,23.6,18.4,30.11,ENE,68,0.7,2.9,80,0.00,,,0.00,WUHU216HW,2013-11-19 09:18:00,
2013-11-19 03:23:00,23.6,18.4,30.11,ENE,68,1.8,2.7,80,0.00,,,0.00,WUHU216HW,2013-11-19 09:23:00,
2013-11-19 03:28:00,23.4,18.2,30.11,NE,45,2.7,2.7,80,0.00,,,0.00,WUHU216HW,2013-11-19 09:28:00,
2013-11-19 03:33:00,23.4,17.9,30.10,NE,45,3.6,3.8,79,0.00,,,0.00,WUHU216HW,2013-11-19 09:33:00,
2013-11-19 03:38:00,23.2,18.0,30.10,ENE,68,1.8,3.8,80,0.00,,,0.00,WUHU216HW,2013-11-19 09:38:00,
2013-11-19 03:43:00,23.0,17.6,30.10,NE,45,2.9,3.4,79,0.00,,,0.00,WUHU216HW,2013-11-19 09:43:00,
2013-11-19 03:48:00,23.0,17.8,30.10,NE,45,3.6,3.6,80,0.00,,,0.00,WUHU216HW,2013-11-19 09:48:00,
2013-11-19 03:53:00,23.0,17.8,30.10,ENE,68,1.8,3.6,80,0.00,,,0.00,WUHU216HW,2013-11-19 09:53:00,
2013-11-19 03:58:00,23.2,18.3,30.10,ENE,68,4.7,4.7,81,0.00,,,0.00,WUHU216HW,2013-11-19 09:58:00,
2013-11-19 04:03:00,23.2,18.0,30.10,ENE,68,2.9,4.7,80,0.00,,,0.00,WUHU216HW,2013-11-19 10:03:00,
2013-11-19 04:08:00,23.4,18.7,30.10,ENE,68,2.5,4.0,82,0.00,,,0.00,WUHU216HW,2013-11-19 10:08:00,
2013-11-19 04:13:00,23.4,18.7,30.09,NE,45,2.5,4.0,82,0.00,,,0.00,WUHU216HW,2013-11-19 10:13:00,
2013-11-19 04:18:00,23.4,18.7,30.09,ENE,68,3.6,4.0,82,0.00,,,0.00,WUHU216HW,2013-11-19 10:18:00,
2013-11-19 04:23:00,23.6,18.9,30.09,ENE,68,6.0,6.0,82,0.00,,,0.00,WUHU216HW,2013-11-19 10:23:00,
2013-11-19 04:28:00,23.8,19.1,30.09,ENE,68,2.2,6.0,82,0.00,,,0.00,WUHU216HW,2013-11-19 10:28:00,
2013-11-19 04:33:00,23.8,19.1,30.09,East,90,2.9,3.6,82,0.00,,,0.00,WUHU216HW,2013-11-19 10:33:00,
2013-11-19 04:38:00,23.8,19.1,30.09,East,90,1.8,3.4,82,0.00,,,0.00,WUHU216HW,2013-11-19 10:38:00,
2013-11-19 04:43:00,23.9,19.3,30.09,ESE,113,3.8,3.8,82,0.00,,,0.00,WUHU216HW,2013-11-19 10:43:00,
2013-11-19 04:48:00,23.8,18.8,30.08,ESE,113,4.7,4.9,81,0.00,,,0.00,WUHU216HW,2013-11-19 10:48:00,
2013-11-19 04:53:00,23.2,18.3,30.08,East,90,5.6,5.6,81,0.00,,,0.00,WUHU216HW,2013-11-19 10:53:00,
2013-11-19 04:58:00,23.4,19.0,30.08,ESE,113,2.9,5.6,83,0.00,,,0.00,WUHU216HW,2013-11-19 10:58:00,
2013-11-19 05:03:00,23.6,18.9,30.08,ENE,68,2.7,4.9,82,0.00,,,0.00,WUHU216HW,2013-11-19 11:03:00,
2013-11-19 05:08:00,23.6,18.9,30.08,SE,135,1.6,4.7,82,0.00,,,0.00,WUHU216HW,2013-11-19 11:08:00,
2013-11-19 05:13:00,23.9,19.5,30.08,East,90,3.8,4.7,83,0.00,,,0.00,WUHU216HW,2013-11-19 11:13:00,
2013-11-19 05:18:00,23.9,19.3,30.08,ESE,113,2.7,4.7,82,0.00,,,0.00,WUHU216HW,2013-11-19 11:18:00,
2013-11-19 05:23:00,23.4,18.5,30.08,ESE,113,4.0,4.7,81,0.00,,,0.00,WUHU216HW,2013-11-19 11:23:00,
2013-11-19 05:28:00,23.0,18.4,30.08,ESE,113,6.3,6.3,82,0.00,,,0.00,WUHU216HW,2013-11-19 11:28:00,
2013-11-19 05:33:00,23.2,18.8,30.08,ESE,113,6.9,7.6,83,0.00,,,0.00,WUHU216HW,2013-11-19 11:33:00,
2013-11-19 05:38:00,23.6,19.2,30.07,ESE,113,5.6,7.6,83,0.00,,,0.00,WUHU216HW,2013-11-19 11:38:00,
2013-11-19 05:43:00,24.1,19.7,30.07,East,90,7.4,7.4,83,0.00,,,0.00,WUHU216HW,2013-11-19 11:43:00,
2013-11-19 05:48:00,24.3,19.6,30.07,East,90,6.9,7.4,82,0.00,,,0.00,WUHU216HW,2013-11-19 11:48:00,
2013-11-19 05:53:00,24.1,19.4,30.07,ESE,113,6.9,8.5,82,0.00,,,0.00,WUHU216HW,2013-11-19 11:53:00,
2013-11-19 05:58:00,24.1,19.4,30.07,ENE,68,6.3,8.5,82,0.00,,,0.00,WUHU216HW,2013-11-19 11:58:00,
2013-11-19 06:03:00,24.5,19.8,30.07,ESE,113,7.6,8.1,82,0.00,,,0.00,WUHU216HW,2013-11-19 12:03:00,
2013-11-19 06:08:00,24.5,19.5,30.07,ESE,113,8.5,8.7,81,0.00,,,0.00,WUHU216HW,2013-11-19 12:08:00,
2013-11-19 06:13:00,24.5,19.8,30.07,ESE,113,6.7,8.7,82,0.00,,,0.00,WUHU216HW,2013-11-19 12:13:00,
2013-11-19 06:18:00,24.7,20.0,30.07,East,90,7.4,8.5,82,0.00,,,0.00,WUHU216HW,2013-11-19 12:18:00,
2013-11-19 06:23:00,24.7,20.0,30.06,ESE,113,8.3,8.3,82,0.00,,,0.00,WUHU216HW,2013-11-19 12:23:00,
2013-11-19 06:28:00,24.8,20.2,30.06,ESE,113,9.2,9.8,82,0.00,,,0.00,WUHU216HW,2013-11-19 12:28:00,
2013-11-19 06:33:00,25.0,20.4,30.06,ESE,113,10.1,11.2,82,0.00,,,0.00,WUHU216HW,2013-11-19 12:33:00,
2013-11-19 06:38:00,25.0,20.4,30.06,ESE,113,7.8,11.2,82,0.00,,,0.00,WUHU216HW,2013-11-19 12:38:00,
2013-11-19 06:43:00,25.0,20.4,30.06,ESE,113,9.2,9.2,82,0.00,,,0.00,WUHU216HW,2013-11-19 12:43:00,
2013-11-19 06:48:00,25.2,20.5,30.06,ESE,113,9.8,11.4,82,0.00,,,0.00,WUHU216HW,2013-11-19 12:48:00,
2013-11-19 06:53:00,25.6,20.5,30.05,ESE,113,11.9,13.9,81,0.00,,,0.00,WUHU216HW,2013-11-19 12:53:00,
2013-11-19 06:58:00,25.6,20.5,30.05,ESE,113,11.0,14.5,81,0.00,,,0.00,WUHU216HW,2013-11-19 12:58:00,
2013-11-19 07:03:00,25.7,20.4,30.05,ESE,113,12.5,14.5,80,0.00,,,0.00,WUHU216HW,2013-11-19 13:03:00,
2013-11-19 07:08:00,25.9,20.6,30.05,ESE,113,10.3,14.3,80,0.00,,,0.00,WUHU216HW,2013-11-19 13:08:00,
2013-11-19 07:13:00,25.9,20.6,30.05,ESE,113,11.6,14.3,80,0.00,,,0.00,WUHU216HW,2013-11-19 13:13:00,
2013-11-19 07:18:00,25.9,20.6,30.05,ESE,113,9.8,13.2,80,0.00,,,0.00,WUHU216HW,2013-11-19 13:18:00,
2013-11-19 07:22:00,26.1,20.8,30.04,ESE,113,9.8,12.8,80,0.00,,,0.00,WUHU216HW,2013-11-19 13:22:00,
2013-11-19 07:28:00,26.3,20.9,30.04,ESE,113,13.2,13.2,80,0.00,,,0.00,WUHU216HW,2013-11-19 13:28:00,
2013-11-19 07:32:00,26.6,21.2,30.04,ESE,113,8.5,13.2,80,0.00,,,0.00,WUHU216HW,2013-11-19 13:32:00,
2013-11-19 07:37:00,27.4,21.7,30.04,ESE,113,11.0,12.5,79,0.00,,,0.00,WUHU216HW,2013-11-19 13:37:00,
2013-11-19 07:42:00,27.7,22.1,30.04,East,90,10.3,12.5,79,0.00,,,0.00,WUHU216HW,2013-11-19 13:42:00,
2013-11-19 07:47:00,28.1,21.8,30.03,ESE,113,9.8,10.5,77,0.00,,,0.00,WUHU216HW,2013-11-19 13:47:00,
2013-11-19 07:52:00,28.4,22.2,30.03,East,90,8.7,12.8,77,0.00,,,0.00,WUHU216HW,2013-11-19 13:52:00,
2013-11-19 07:57:00,29.0,22.1,30.03,ESE,113,11.0,12.8,75,0.00,,,0.00,WUHU216HW,2013-11-19 13:57:00,
2013-11-19 08:02:00,29.0,22.7,30.03,ESE,113,9.8,11.0,77,0.00,,,0.00,WUHU216HW,2013-11-19 14:02:00,
2013-11-19 08:07:00,29.0,22.3,30.03,ESE,113,8.3,11.0,76,0.00,,,0.00,WUHU216HW,2013-11-19 14:07:00,
2013-11-19 08:12:00,28.6,22.3,30.03,ESE,113,11.2,11.2,77,0.00,,,0.00,WUHU216HW,2013-11-19 14:12:00,
2013-11-19 08:17:00,28.4,22.2,30.03,ESE,113,9.6,12.3,77,0.00,,,0.00,WUHU216HW,2013-11-19 14:17:00,
2013-11-19 08:22:00,28.6,22.3,30.03,East,90,11.9,13.0,77,0.00,,,0.00,WUHU216HW,2013-11-19 14:22:00,
2013-11-19 08:27:00,28.6,22.0,30.03,ESE,113,12.8,15.0,76,0.00,,,0.00,WUHU216HW,2013-11-19 14:27:00,
2013-11-19 08:28:00,28.8,22.5,30.03,ESE,113,9.2,15.0,77,0.00,,,0.00,WUHU216HW,2013-11-19 14:28:00,
2013-11-19 08:33:00,28.8,22.1,30.03,East,90,11.0,15.0,76,0.00,,,0.00,WUHU216HW,2013-11-19 14:33:00,
2013-11-19 08:38:00,29.5,22.9,30.02,ESE,113,11.0,13.0,76,0.00,,,0.00,WUHU216HW,2013-11-19 14:38:00,
2013-11-19 08:43:00,30.6,23.0,30.02,ESE,113,12.3,13.0,73,0.00,,,0.00,WUHU216HW,2013-11-19 14:43:00,
2013-11-19 08:48:00,30.8,23.8,30.02,SE,135,12.5,13.0,75,0.00,,,0.00,WUHU216HW,2013-11-19 14:48:00,
2013-11-19 08:53:00,31.3,23.7,30.02,East,90,11.0,14.3,73,0.00,,,0.00,WUHU216HW,2013-11-19 14:53:00,
2013-11-19 08:58:00,31.9,24.2,30.02,ESE,113,12.5,15.2,73,0.00,,,0.00,WUHU216HW,2013-11-19 14:58:00,
2013-11-19 09:03:00,32.2,24.2,30.02,SE,135,9.6,15.2,72,0.00,,,0.00,WUHU216HW,2013-11-19 15:03:00,
2013-11-19 09:08:00,32.8,24.0,30.02,SE,135,13.4,14.1,70,0.00,,,0.00,WUHU216HW,2013-11-19 15:08:00,
2013-11-19 09:13:00,33.5,24.3,30.02,SSE,158,10.5,14.1,69,0.00,,,0.00,WUHU216HW,2013-11-19 15:13:00,
2013-11-19 09:18:00,33.7,24.8,30.02,ESE,113,14.1,14.1,70,0.00,,,0.00,WUHU216HW,2013-11-19 15:18:00,
2013-11-19 09:23:00,33.8,24.3,30.02,ESE,113,10.5,14.1,68,0.00,,,0.00,WUHU216HW,2013-11-19 15:23:00,
2013-11-19 09:28:00,34.2,24.7,30.02,ESE,113,15.9,15.9,68,0.00,,,0.00,WUHU216HW,2013-11-19 15:28:00,
2013-11-19 09:33:00,34.6,25.0,30.01,ESE,113,14.8,15.9,68,0.00,,,0.00,WUHU216HW,2013-11-19 15:33:00,
2013-11-19 09:38:00,35.3,25.0,30.01,ESE,113,11.9,14.8,66,0.00,,,0.00,WUHU216HW,2013-11-19 15:38:00,
2013-11-19 09:43:00,35.3,25.0,30.01,ESE,113,13.9,16.3,66,0.00,,,0.00,WUHU216HW,2013-11-19 15:43:00,
2013-11-19 09:48:00,36.4,25.4,30.01,SE,135,12.8,16.3,64,0.00,,,0.00,WUHU216HW,2013-11-19 15:48:00,
2013-11-19 09:53:00,36.9,25.1,30.01,SE,135,12.1,15.7,62,0.00,,,0.00,WUHU216HW,2013-11-19 15:53:00,
2013-11-19 09:58:00,37.6,26.1,30.00,SE,135,11.2,15.9,63,0.00,,,0.00,WUHU216HW,2013-11-19 15:58:00,
2013-11-19 10:03:00,38.0,26.1,30.00,SSE,158,10.1,15.9,62,0.00,,,0.00,WUHU216HW,2013-11-19 16:03:00,
2013-11-19 10:08:00,38.9,25.8,30.00,SE,135,14.5,15.4,59,0.00,,,0.00,WUHU216HW,2013-11-19 16:08:00,
2013-11-19 10:13:00,39.2,26.0,30.00,SE,135,13.4,17.0,59,0.00,,,0.00,WUHU216HW,2013-11-19 16:13:00,
2013-11-19 10:18:00,39.2,26.0,30.00,SE,135,11.6,17.0,59,0.00,,,0.00,WUHU216HW,2013-11-19 16:18:00,
2013-11-19 10:23:00,39.2,25.6,30.00,SE,135,14.5,16.3,58,0.00,,,0.00,WUHU216HW,2013-11-19 16:23:00,
2013-11-19 10:28:00,39.6,26.4,29.99,SE,135,15.7,16.3,59,0.00,,,0.00,WUHU216HW,2013-11-19 16:28:00,
2013-11-19 10:33:00,41.0,26.0,29.99,SE,135,13.2,15.7,55,0.00,,,0.00,WUHU216HW,2013-11-19 16:33:00,
2013-11-19 10:38:00,41.4,25.9,29.99,SSE,158,14.3,16.1,54,0.00,,,0.00,WUHU216HW,2013-11-19 16:38:00,
2013-11-19 10:43:00,40.7,26.1,29.99,SE,135,14.5,16.6,56,0.00,,,0.00,WUHU216HW,2013-11-19 16:43:00,
2013-11-19 10:48:00,40.3,25.7,29.99,SE,135,16.8,16.8,56,0.00,,,0.00,WUHU216HW,2013-11-19 16:48:00,
2013-11-19 10:53:00,40.0,25.8,29.98,ESE,113,11.6,16.8,57,0.00,,,0.00,WUHU216HW,2013-11-19 16:53:00,
2013-11-19 10:58:00,40.1,26.0,29.98,SE,135,17.2,17.2,57,0.00,,,0.00,WUHU216HW,2013-11-19 16:58:00,
2013-11-19 11:03:00,41.0,26.5,29.98,SSE,158,14.3,17.2,56,0.00,,,0.00,WUHU216HW,2013-11-19 17:03:00,
2013-11-19 11:08:00,41.9,26.5,29.97,SSE,158,12.5,14.3,54,0.00,,,0.00,WUHU216HW,2013-11-19 17:08:00,
2013-11-19 11:13:00,42.8,26.8,29.97,SE,135,15.9,17.2,53,0.00,,,0.00,WUHU216HW,2013-11-19 17:13:00,
2013-11-19 11:18:00,42.5,26.6,29.97,SE,135,16.1,19.2,53,0.00,,,0.00,WUHU216HW,2013-11-19 17:18:00,
2013-11-19 11:23:00,43.2,27.2,29.96,SE,135,19.2,19.2,53,0.00,,,0.00,WUHU216HW,2013-11-19 17:23:00,
2013-11-19 11:28:00,43.9,27.0,29.96,SE,135,14.5,19.7,51,0.00,,,0.00,WUHU216HW,2013-11-19 17:28:00,
2013-11-19 11:33:00,44.5,27.5,29.95,SSE,158,21.3,21.3,51,0.00,,,0.00,WUHU216HW,2013-11-19 17:33:00,
2013-11-19 11:35:00,44.3,27.3,29.95,SE,135,16.1,22.4,51,0.00,,,0.00,WUHU216HW,2013-11-19 17:35:00,
2013-11-19 11:40:00,44.1,26.7,29.95,SE,135,22.4,23.0,50,0.00,,,0.00,WUHU216HW,2013-11-19 17:40:00,
2013-11-19 11:45:00,43.7,27.3,29.95,SSE,158,22.4,23.0,52,0.00,,,0.00,WUHU216HW,2013-11-19 17:45:00,
2013-11-19 11:50:00,43.9,27.5,29.94,SE,135,14.3,22.4,52,0.00,,,0.00,WUHU216HW,2013-11-19 17:50:00,
2013-11-19 11:55:00,44.6,27.6,29.94,SE,135,17.2,20.6,51,0.00,,,0.00,WUHU216HW,2013-11-19 17:55:00,
2013-11-19 12:00:00,45.0,28.0,29.94,SE,135,20.1,20.1,51,0.00,,,0.00,WUHU216HW,2013-11-19 18:00:00,
2013-11-19 12:05:00,45.7,27.6,29.94,SE,135,18.3,22.1,49,0.00,,,0.00,WUHU216HW,2013-11-19 18:05:00,
2013-11-19 12:10:00,46.3,28.1,29.93,SE,135,15.7,22.1,49,0.00,,,0.00,WUHU216HW,2013-11-19 18:10:00,
2013-11-19 12:15:00,46.4,27.7,29.93,SE,135,16.6,20.4,48,0.00,,,0.00,WUHU216HW,2013-11-19 18:15:00,
2013-11-19 12:20:00,46.6,27.9,29.93,SE,135,16.6,21.7,48,0.00,,,0.00,WUHU216HW,2013-11-19 18:20:00,
2013-11-19 12:25:00,46.8,28.1,29.93,SE,135,15.0,21.7,48,0.00,,,0.00,WUHU216HW,2013-11-19 18:25:00,
2013-11-19 12:30:00,47.2,27.8,29.93,SSE,158,19.9,20.1,47,0.00,,,0.00,WUHU216HW,2013-11-19 18:30:00,
2013-11-19 12:35:00,47.2,27.8,29.92,SE,135,16.3,19.9,47,0.00,,,0.00,WUHU216HW,2013-11-19 18:35:00,
2013-11-19 12:40:00,48.1,28.1,29.92,SSE,158,17.2,20.4,46,0.00,,,0.00,WUHU216HW,2013-11-19 18:40:00,
2013-11-19 12:45:00,47.7,28.4,29.92,SE,135,14.5,20.4,47,0.00,,,0.00,WUHU216HW,2013-11-19 18:45:00,
2013-11-19 12:50:00,47.5,28.2,29.91,SE,135,16.3,21.0,47,0.00,,,0.00,WUHU216HW,2013-11-19 18:50:00,
2013-11-19 12:55:00,47.9,27.9,29.91,SE,135,16.3,21.0,46,0.00,,,0.00,WUHU216HW,2013-11-19 18:55:00,
2013-11-19 13:00:00,47.7,27.8,29.91,SE,135,18.3,18.8,46,0.00,,,0.00,WUHU216HW,2013-11-19 19:00:00,
2013-11-19 13:05:00,47.5,28.2,29.91,SSE,158,20.1,20.4,47,0.00,,,0.00,WUHU216HW,2013-11-19 19:05:00,
2013-11-19 13:10:00,47.5,28.2,29.90,SE,135,19.5,21.0,47,0.00,,,0.00,WUHU216HW,2013-11-19 19:10:00,
2013-11-19 13:15:00,47.9,27.9,29.89,SE,135,16.6,21.7,46,0.00,,,0.00,WUHU216HW,2013-11-19 19:15:00,
2013-11-19 13:20:00,48.4,28.5,29.89,SE,135,15.0,21.7,46,0.00,,,0.00,WUHU216HW,2013-11-19 19:20:00,
2013-11-19 13:25:00,47.9,27.9,29.89,SE,135,18.6,22.4,46,0.00,,,0.00,WUHU216HW,2013-11-19 19:25:00,
2013-11-19 13:30:00,47.3,28.5,29.89,SSE,158,16.3,22.4,48,0.00,,,0.00,WUHU216HW,2013-11-19 19:30:00,
2013-11-19 13:35:00,47.9,28.4,29.89,SE,135,15.0,20.8,47,0.00,,,0.00,WUHU216HW,2013-11-19 19:35:00,
2013-11-19 13:40:00,47.3,28.5,29.88,SE,135,16.8,23.7,48,0.00,,,0.00,WUHU216HW,2013-11-19 19:40:00,
2013-11-19 13:45:00,47.5,28.7,29.88,SE,135,16.8,23.7,48,0.00,,,0.00,WUHU216HW,2013-11-19 19:45:00,
2013-11-19 13:50:00,47.2,28.4,29.87,SE,135,15.7,20.8,48,0.00,,,0.00,WUHU216HW,2013-11-19 19:50:00,
2013-11-19 13:55:00,46.8,29.2,29.87,SE,135,19.7,20.8,50,0.00,,,0.00,WUHU216HW,2013-11-19 19:55:00,
2013-11-19 14:00:00,47.2,29.4,29.87,ESE,113,13.9,21.9,50,0.00,,,0.00,WUHU216HW,2013-11-19 20:00:00,
2013-11-19 14:05:00,47.5,29.3,29.87,SE,135,14.3,21.9,49,0.00,,,0.00,WUHU216HW,2013-11-19 20:05:00,
2013-11-19 14:10:00,47.7,29.4,29.87,SSE,158,14.3,17.7,49,0.00,,,0.00,WUHU216HW,2013-11-19 20:10:00,
2013-11-19 14:15:00,48.4,29.5,29.88,SSE,158,16.3,17.0,48,0.00,,,0.00,WUHU216HW,2013-11-19 20:15:00,
2013-11-19 14:20:00,48.1,29.7,29.87,SE,135,14.3,18.8,49,0.00,,,0.00,WUHU216HW,2013-11-19 20:20:00,
2013-11-19 14:25:00,48.6,30.3,29.87,SSE,158,15.7,18.8,49,0.00,,,0.00,WUHU216HW,2013-11-19 20:25:00,
2013-11-19 14:30:00,48.2,29.9,29.87,SE,135,15.0,19.0,49,0.00,,,0.00,WUHU216HW,2013-11-19 20:30:00,
2013-11-19 14:35:00,48.2,29.9,29.87,SSE,158,17.0,20.4,49,0.00,,,0.00,WUHU216HW,2013-11-19 20:35:00,
2013-11-19 14:40:00,47.7,30.0,29.86,SE,135,18.6,20.4,50,0.00,,,0.00,WUHU216HW,2013-11-19 20:40:00,
2013-11-19 14:45:00,47.3,30.1,29.86,SE,135,15.7,19.2,51,0.00,,,0.00,WUHU216HW,2013-11-19 20:45:00,
2013-11-19 14:50:00,47.2,29.9,29.86,SE,135,13.4,20.1,51,0.00,,,0.00,WUHU216HW,2013-11-19 20:50:00,
2013-11-19 14:55:00,47.2,29.9,29.85,SE,135,18.3,20.1,51,0.00,,,0.00,WUHU216HW,2013-11-19 20:55:00,
2013-11-19 15:00:00,47.0,29.7,29.85,SE,135,18.3,22.8,51,0.00,,,0.00,WUHU216HW,2013-11-19 21:00:00,
2013-11-19 15:05:00,47.0,30.3,29.85,SE,135,13.9,22.8,52,0.00,,,0.00,WUHU216HW,2013-11-19 21:05:00,
2013-11-19 15:10:00,47.2,30.3,29.84,SE,135,19.0,19.0,52,0.00,,,0.00,WUHU216HW,2013-11-19 21:10:00,
2013-11-19 15:15:00,47.0,29.7,29.85,SE,135,18.3,23.7,51,0.00,,,0.00,WUHU216HW,2013-11-19 21:15:00,
2013-11-19 15:20:00,46.6,29.9,29.84,SE,135,23.5,23.7,52,0.00,,,0.00,WUHU216HW,2013-11-19 21:20:00,
2013-11-19 15:25:00,46.3,30.0,29.84,SE,135,19.2,24.2,53,0.00,,,0.00,WUHU216HW,2013-11-19 21:25:00,
2013-11-19 15:30:00,46.1,30.2,29.85,SE,135,17.4,24.2,54,0.00,,,0.00,WUHU216HW,2013-11-19 21:30:00,
2013-11-19 15:35:00,45.7,30.4,29.84,SE,135,21.5,22.1,55,0.00,,,0.00,WUHU216HW,2013-11-19 21:35:00,
2013-11-19 15:40:00,45.5,30.2,29.84,SE,135,13.6,21.5,55,0.00,,,0.00,WUHU216HW,2013-11-19 21:40:00,
2013-11-19 15:45:00,45.4,30.5,29.84,SE,135,17.2,22.8,56,0.00,,,0.00,WUHU216HW,2013-11-19 21:45:00,
2013-11-19 15:50:00,45.2,30.3,29.84,SE,135,17.7,22.8,56,0.00,,,0.00,WUHU216HW,2013-11-19 21:50:00,
2013-11-19 15:55:00,45.0,30.3,29.84,SSE,158,18.1,18.8,56,0.00,,,0.00,WUHU216HW,2013-11-19 21:55:00,
2013-11-19 16:00:00,45.0,30.3,29.84,SSE,158,16.6,18.1,56,0.00,,,0.00,WUHU216HW,2013-11-19 22:00:00,
2013-11-19 16:05:00,45.0,30.3,29.84,SE,135,22.4,22.4,56,0.00,,,0.00,WUHU216HW,2013-11-19 22:05:00,
2013-11-19 16:10:00,44.8,30.1,29.84,SE,135,18.1,22.4,56,0.00,,,0.00,WUHU216HW,2013-11-19 22:10:00,
2013-11-19 16:15:00,44.6,29.9,29.84,SSE,158,20.1,22.4,56,0.00,,,0.00,WUHU216HW,2013-11-19 22:15:00,
2013-11-19 16:20:00,44.5,30.2,29.84,SE,135,15.2,22.4,57,0.00,,,0.00,WUHU216HW,2013-11-19 22:20:00,
2013-11-19 16:25:00,44.5,30.2,29.84,SE,135,15.2,18.8,57,0.00,,,0.00,WUHU216HW,2013-11-19 22:25:00,
2013-11-19 16:30:00,44.1,30.2,29.84,SE,135,22.8,22.8,58,0.00,,,0.00,WUHU216HW,2013-11-19 22:30:00,
2013-11-19 16:35:00,43.9,30.1,29.84,SE,135,16.8,22.8,58,0.00,,,0.00,WUHU216HW,2013-11-19 22:35:00,
2013-11-19 16:40:00,43.7,29.9,29.83,SE,135,19.2,21.3,58,0.00,,,0.00,WUHU216HW,2013-11-19 22:40:00,
2013-11-19 16:45:00,43.7,30.3,29.83,SE,135,13.4,21.3,59,0.00,,,0.00,WUHU216HW,2013-11-19 22:45:00,
2013-11-19 16:50:00,43.6,30.2,29.84,SE,135,19.0,21.5,59,0.00,,,0.00,WUHU216HW,2013-11-19 22:50:00,
2013-11-19 16:55:00,43.6,30.2,29.83,SE,135,18.3,21.5,59,0.00,,,0.00,WUHU216HW,2013-11-19 22:55:00,
2013-11-19 17:00:00,43.6,30.2,29.83,SSE,158,16.3,22.4,59,0.00,,,0.00,WUHU216HW,2013-11-19 23:00:00,
2013-11-19 17:05:00,43.4,30.0,29.83,SSE,158,18.6,22.4,59,0.00,,,0.00,WUHU216HW,2013-11-19 23:05:00,
2013-11-19 17:10:00,43.4,30.0,29.83,SSE,158,16.3,24.4,59,0.00,,,0.00,WUHU216HW,2013-11-19 23:10:00,
2013-11-19 17:15:00,43.4,30.0,29.83,SE,135,22.6,28.9,59,0.00,,,0.00,WUHU216HW,2013-11-19 23:15:00,
2013-11-19 17:20:00,43.6,30.2,29.83,SE,135,15.9,28.9,59,0.00,,,0.00,WUHU216HW,2013-11-19 23:20:00,
2013-11-19 17:25:00,43.6,30.2,29.83,SE,135,19.5,23.3,59,0.00,,,0.00,WUHU216HW,2013-11-19 23:25:00,
2013-11-19 17:30:00,43.6,30.2,29.83,SSE,158,17.9,22.4,59,0.00,,,0.00,WUHU216HW,2013-11-19 23:30:00,
2013-11-19 17:35:00,43.6,29.7,29.83,SSE,158,22.1,24.4,58,0.00,,,0.00,WUHU216HW,2013-11-19 23:35:00,
2013-11-19 17:40:00,43.6,30.2,29.83,SE,135,17.2,24.4,59,0.00,,,0.00,WUHU216HW,2013-11-19 23:40:00,
2013-11-19 17:45:00,43.4,30.0,29.82,SSE,158,15.0,22.8,59,0.00,,,0.00,WUHU216HW,2013-11-19 23:45:00,
2013-11-19 17:50:00,43.4,30.0,29.82,SSE,158,20.8,22.8,59,0.00,,,0.00,WUHU216HW,2013-11-19 23:50:00,
2013-11-19 17:55:00,43.2,30.2,29.82,SE,135,19.9,24.4,60,0.00,,,0.00,WUHU216HW,2013-11-19 23:55:00,
2013-11-19 18:00:00,43.0,30.1,29.82,SSE,158,24.4,24.4,60,0.00,,,0.00,WUHU216HW,2013-11-20 00:00:00,
2013-11-19 18:05:00,43.0,30.4,29.82,SSE,158,20.8,24.6,61,0.00,,,0.00,WUHU216HW,2013-11-20 00:05:00,
2013-11-19 18:10:00,42.8,30.2,29.82,SSE,158,17.9,24.6,61,0.00,,,0.00,WUHU216HW,2013-11-20 00:10:00,
2013-11-19 18:15:00,42.7,30.2,29.82,SE,135,19.7,20.6,61,0.00,,,0.00,WUHU216HW,2013-11-20 00:15:00,
2013-11-19 18:20:00,42.5,30.3,29.82,SE,135,19.2,22.1,62,0.00,,,0.00,WUHU216HW,2013-11-20 00:20:00,
2013-11-19 18:25:00,42.5,30.3,29.82,SE,135,20.8,22.1,62,0.00,,,0.00,WUHU216HW,2013-11-20 00:25:00,
2013-11-19 18:30:00,42.5,30.3,29.82,SE,135,19.9,22.8,62,0.00,,,0.00,WUHU216HW,2013-11-20 00:30:00,
2013-11-19 18:35:00,42.5,30.3,29.82,SE,135,20.8,22.8,62,0.00,,,0.00,WUHU216HW,2013-11-20 00:35:00,
2013-11-19 18:40:00,42.3,30.2,29.82,SE,135,22.4,22.4,62,0.00,,,0.00,WUHU216HW,2013-11-20 00:40:00,
2013-11-19 18:45:00,42.3,30.6,29.82,SSE,158,17.2,22.4,63,0.00,,,0.00,WUHU216HW,2013-11-20 00:45:00,
2013-11-19 18:50:00,42.3,30.6,29.82,SE,135,17.9,19.9,63,0.00,,,0.00,WUHU216HW,2013-11-20 00:50:00,
2013-11-19 18:55:00,42.3,30.2,29.82,SE,135,19.0,19.2,62,0.00,,,0.00,WUHU216HW,2013-11-20 00:55:00,
2013-11-19 19:00:00,42.3,30.7,29.81,SE,135,21.0,21.0,63,0.00,,,0.00,WUHU216HW,2013-11-20 01:00:00,
2013-11-19 19:05:00,42.3,30.6,29.81,SE,135,18.6,21.3,63,0.00,,,0.00,WUHU216HW,2013-11-20 01:05:00,
2013-11-19 19:10:00,42.1,30.4,29.81,SE,135,20.1,21.3,63,0.00,,,0.00,WUHU216HW,2013-11-20 01:10:00,
2013-11-19 19:15:00,42.1,30.4,29.81,SE,135,17.2,20.1,63,0.00,,,0.00,WUHU216HW,2013-11-20 01:15:00,
2013-11-19 19:20:00,42.1,30.4,29.81,SE,135,19.0,19.2,63,0.00,,,0.00,WUHU216HW,2013-11-20 01:20:00,
2013-11-19 19:25:00,42.3,30.6,29.80,SE,135,19.5,19.5,63,0.00,,,0.00,WUHU216HW,2013-11-20 01:25:00,
2013-11-19 19:30:00,42.5,30.7,29.80,SE,135,16.1,21.9,63,0.00,,,0.00,WUHU216HW,2013-11-20 01:30:00,
2013-11-19 19:35:00,42.5,30.7,29.80,SSE,158,20.8,21.9,63,0.00,,,0.00,WUHU216HW,2013-11-20 01:35:00,
2013-11-19 19:40:00,42.7,30.9,29.80,SSE,158,13.2,21.5,63,0.00,,,0.00,WUHU216HW,2013-11-20 01:40:00,
2013-11-19 19:45:00,42.7,30.5,29.80,SSE,158,19.7,23.7,62,0.00,,,0.00,WUHU216HW,2013-11-20 01:45:00,
2013-11-19 19:50:00,42.7,30.5,29.80,SE,135,19.0,23.7,62,0.00,,,0.00,WUHU216HW,2013-11-20 01:50:00,
2013-11-19 19:55:00,42.7,30.5,29.79,SE,135,17.4,22.1,62,0.00,,,0.00,WUHU216HW,2013-11-20 01:55:00,
2013-11-19 20:00:00,42.7,30.5,29.79,SE,135,23.3,23.3,62,0.00,,,0.00,WUHU216HW,2013-11-20 02:00:00,
2013-11-19 20:05:00,42.5,30.7,29.80,SE,135,15.4,23.3,63,0.00,,,0.00,WUHU216HW,2013-11-20 02:05:00,
2013-11-19 20:10:00,42.7,30.5,29.80,SE,135,21.7,21.7,62,0.00,,,0.00,WUHU216HW,2013-11-20 02:10:00,
2013-11-19 20:15:00,42.7,30.9,29.79,SE,135,18.3,23.5,63,0.00,,,0.00,WUHU216HW,2013-11-20 02:15:00,
2013-11-19 20:20:00,42.5,30.7,29.79,SSE,158,20.8,24.6,63,0.00,,,0.00,WUHU216HW,2013-11-20 02:20:00,
2013-11-19 20:25:00,42.5,30.7,29.80,SE,135,16.3,24.6,63,0.00,,,0.00,WUHU216HW,2013-11-20 02:25:00,
2013-11-19 20:30:00,42.5,30.7,29.79,SSE,158,18.6,19.2,63,0.00,,,0.00,WUHU216HW,2013-11-20 02:30:00,
2013-11-19 20:35:00,42.5,30.7,29.79,SE,135,20.1,20.1,63,0.00,,,0.00,WUHU216HW,2013-11-20 02:35:00,
2013-11-19 20:40:00,42.8,30.7,29.79,SSE,158,21.9,22.1,62,0.00,,,0.00,WUHU216HW,2013-11-20 02:40:00,
2013-11-19 20:45:00,42.8,30.7,29.79,SSE,158,16.3,22.4,62,0.00,,,0.00,WUHU216HW,2013-11-20 02:45:00,
2013-11-19 20:50:00,42.8,30.7,29.79,SSE,158,19.2,22.4,62,0.00,,,0.00,WUHU216HW,2013-11-20 02:50:00,
2013-11-19 20:55:00,42.8,30.7,29.79,SSE,158,17.0,22.6,62,0.00,,,0.00,WUHU216HW,2013-11-20 02:55:00,
2013-11-19 21:00:00,42.8,30.7,29.79,SSE,158,21.9,23.7,62,0.00,,,0.00,WUHU216HW,2013-11-20 03:00:00,
2013-11-19 21:05:00,43.2,30.6,29.79,SSE,158,21.5,25.5,61,0.00,,,0.00,WUHU216HW,2013-11-20 03:05:00,
2013-11-19 21:10:00,43.4,30.4,29.79,SSE,158,21.3,25.5,60,0.00,,,0.00,WUHU216HW,2013-11-20 03:10:00,
2013-11-19 21:15:00,43.4,30.8,29.79,SSE,158,23.7,23.7,61,0.00,,,0.00,WUHU216HW,2013-11-20 03:15:00,
2013-11-19 21:20:00,43.4,30.4,29.80,SSE,158,21.9,23.7,60,0.00,,,0.00,WUHU216HW,2013-11-20 03:20:00,
2013-11-19 21:25:00,43.6,30.6,29.80,SSE,158,18.6,21.9,60,0.00,,,0.00,WUHU216HW,2013-11-20 03:25:00,
2013-11-19 21:30:00,43.6,30.6,29.79,SSE,158,21.0,26.8,60,0.00,,,0.00,WUHU216HW,2013-11-20 03:30:00,
2013-11-19 21:35:00,43.6,30.6,29.79,SSE,158,28.9,28.9,60,0.00,,,0.00,WUHU216HW,2013-11-20 03:35:00,
2013-11-19 21:40:00,43.7,30.8,29.79,SSE,158,32.7,32.7,60,0.00,,,0.00,WUHU216HW,2013-11-20 03:40:00,
2013-11-19 21:45:00,43.7,30.8,29.79,SE,135,23.0,32.7,60,0.00,,,0.00,WUHU216HW,2013-11-20 03:45:00,
2013-11-19 21:50:00,43.9,31.0,29.79,SSE,158,20.1,23.7,60,0.00,,,0.00,WUHU216HW,2013-11-20 03:50:00,
2013-11-19 21:55:00,44.1,30.7,29.80,SSE,158,30.2,30.2,59,0.00,,,0.00,WUHU216HW,2013-11-20 03:55:00,
2013-11-19 22:00:00,44.3,30.9,29.80,South,180,25.9,30.2,59,0.00,,,0.00,WUHU216HW,2013-11-20 04:00:00,
2013-11-19 22:05:00,44.3,30.4,29.79,SSE,158,18.6,25.9,58,0.00,,,0.00,WUHU216HW,2013-11-20 04:05:00,
2013-11-19 22:10:00,44.3,30.4,29.79,SSE,158,27.1,27.1,58,0.00,,,0.00,WUHU216HW,2013-11-20 04:10:00,
2013-11-19 22:15:00,44.3,30.4,29.79,SSE,158,16.1,27.1,58,0.00,,,0.00,WUHU216HW,2013-11-20 04:15:00,
2013-11-19 22:20:00,44.5,30.2,29.79,SSE,158,23.0,24.4,57,0.00,,,0.00,WUHU216HW,2013-11-20 04:20:00,
2013-11-19 22:25:00,44.5,30.2,29.79,SSE,158,19.7,23.0,57,0.00,,,0.00,WUHU216HW,2013-11-20 04:25:00,
2013-11-19 22:30:00,44.5,30.2,29.79,SSE,158,18.1,20.8,57,0.00,,,0.00,WUHU216HW,2013-11-20 04:30:00,
2013-11-19 22:35:00,44.6,29.9,29.79,SSE,158,19.7,25.9,56,0.00,,,0.00,WUHU216HW,2013-11-20 04:35:00,
2013-11-19 22:40:00,44.6,29.9,29.79,SSE,158,23.0,25.9,56,0.00,,,0.00,WUHU216HW,2013-11-20 04:40:00,
2013-11-19 22:45:00,44.6,29.4,29.79,SSE,158,19.5,28.4,55,0.00,,,0.00,WUHU216HW,2013-11-20 04:45:00,
2013-11-19 22:50:00,44.6,29.4,29.79,SSE,158,20.4,28.4,55,0.00,,,0.00,WUHU216HW,2013-11-20 04:50:00,
2013-11-19 22:55:00,44.8,29.6,29.79,SSE,158,19.2,27.3,55,0.00,,,0.00,WUHU216HW,2013-11-20 04:55:00,
2013-11-19 23:00:00,44.6,29.5,29.79,SSE,158,22.8,27.3,55,0.00,,,0.00,WUHU216HW,2013-11-20 05:00:00,
2013-11-19 23:01:00,44.6,29.0,29.79,SSE,158,23.7,27.1,54,0.00,,,0.00,WUHU216HW,2013-11-20 05:01:00,
2013-11-19 23:06:00,44.6,29.0,29.79,SSE,158,23.0,24.4,54,0.00,,,0.00,WUHU216HW,2013-11-20 05:06:00,
2013-11-19 23:11:00,44.6,29.0,29.79,SSE,158,23.3,28.9,54,0.00,,,0.00,WUHU216HW,2013-11-20 05:11:00,
2013-11-19 23:16:00,44.6,29.0,29.79,SSE,158,22.1,28.9,54,0.00,,,0.00,WUHU216HW,2013-11-20 05:16:00,
2013-11-19 23:21:00,44.6,29.0,29.79,SSE,158,18.8,23.0,54,0.00,,,0.00,WUHU216HW,2013-11-20 05:21:00,
2013-11-19 23:26:00,44.6,29.0,29.79,SSE,158,21.5,23.0,54,0.00,,,0.00,WUHU216HW,2013-11-20 05:26:00,
2013-11-19 23:31:00,44.6,29.0,29.79,SSE,158,20.8,25.7,54,0.00,,,0.00,WUHU216HW,2013-11-20 05:31:00,
2013-11-19 23:36:00,44.6,28.5,29.79,SSE,158,20.6,25.7,53,0.00,,,0.00,WUHU216HW,2013-11-20 05:36:00,
2013-11-19 23:41:00,44.6,28.5,29.79,SSE,158,19.5,23.0,53,0.00,,,0.00,WUHU216HW,2013-11-20 05:41:00,
2013-11-19 23:46:00,44.6,28.5,29.79,SSE,158,21.0,23.0,53,0.00,,,0.00,WUHU216HW,2013-11-20 05:46:00,
2013-11-19 23:51:00,44.6,28.5,29.79,SSE,158,21.5,25.9,53,0.00,,,0.00,WUHU216HW,2013-11-20 05:51:00,
2013-11-19 23:56:00,44.6,28.5,29.79,SSE,158,21.0,25.9,53,0.00,,,0.00,WUHU216HW,2013-11-20 05:56:00,